{"data":{"norad_id":68918,"epoch":"2026-09-19T18:17:52.383840Z","epoch_age_seconds":79170,"freshness":"FRESH","line1":"1 68918U 26097Z   26262.76241185  .00016229  00000+0  50378-3 0  9993","line2":"2 68918  97.2851  96.9863 0002240  98.5172 261.6324 15.33453548 21982","mean_motion":15.33453548,"eccentricity":0.000224,"inclination_deg":97.2851,"raan_deg":96.9863,"arg_perigee_deg":98.5172,"mean_anomaly_deg":261.6324,"bstar":0.00050378,"rev_number":2198,"period_min":93.905681191198,"perigee_km":463.98476310015,"apogee_km":467.05072042446,"semimajor_km":6843.6547417623,"source":"CELESTRAK","updated_at":"2026-09-20T09:00:44.050922Z"}}